CDT,Max TemperatureF,Mean TemperatureF,Min TemperatureF,Max Dew PointF,MeanDew PointF,Min DewpointF,Max Humidity, Mean Humidity, Min Humidity, Max Sea Level PressureIn, Mean Sea Level PressureIn, Min Sea Level PressureIn, Max VisibilityMiles, Mean VisibilityMiles, Min VisibilityMiles, Max Wind SpeedMPH, Mean Wind SpeedMPH, Max Gust SpeedMPH,PrecipitationIn, CloudCover, Events, WindDirDegrees
2012-10-1,81,67,55,57,54,50,93,71,36,30.11,29.98,29.88,10,9,2,29,16,38,0.38,3,Rain-Thunderstorm,10
2012-10-2,79,67,55,53,51,49,87,59,35,30.06,29.96,29.85,10,10,10,13,5,22,0.00,0,,151
2012-10-3,91,74,57,53,48,41,77,44,17,29.86,29.82,29.77,10,10,10,16,12,24,0.00,0,,171
2012-10-4,75,69,61,54,47,39,67,46,33,30.11,29.99,29.86,10,10,9,15,11,,0.00,0,,231
2012-10-5,89,72,55,61,53,47,81,55,24,30.03,29.95,29.86,10,10,10,16,6,21,0.00,0,,122
2012-10-6,71,59,48,59,50,39,100,84,61,30.20,30.07,29.86,10,7,1,17,9,,0.00,5,Rain,51
2012-10-7,50,44,39,42,39,37,93,84,71,30.29,30.21,30.10,10,7,2,16,9,,0.00,8,Rain,59
2012-10-8,78,60,44,50,44,40,90,71,37,30.21,30.08,29.87,10,10,10,16,8,,0.00,5,,122
2012-10-9,90,71,53,52,48,37,83,46,16,29.91,29.87,29.81,10,10,10,15,9,,0.00,0,,182
2012-10-10,69,62,55,55,53,49,94,74,53,30.22,30.05,29.86,10,9,2,15,8,,0.00,4,,317
2012-10-11,89,74,59,65,61,54,88,71,35,30.08,29.97,29.86,10,10,9,18,6,23,0.00,2,,145
2012-10-12,84,76,69,64,62,56,84,65,51,30.10,29.92,29.86,10,10,10,24,16,32,0.00,1,,156
2012-10-13,89,77,66,62,52,28,76,49,12,30.02,29.87,29.78,10,10,10,28,15,44,0.00,1,,244
2012-10-14,79,66,53,40,35,31,48,34,19,30.17,30.07,29.95,10,10,10,13,6,,0.00,0,,192
2012-10-15,80,68,57,50,45,39,53,45,35,30.11,30.01,29.88,10,10,10,14,9,23,0.00,0,,159
2012-10-16,82,74,66,56,53,48,63,50,30,29.94,29.77,29.67,10,10,10,20,12,26,0.00,0,,230
2012-10-17,90,79,68,56,41,27,63,34,10,29.74,29.68,29.63,10,10,10,22,16,28,0.00,0,,252
2012-10-18,78,66,53,42,38,33,62,38,21,29.96,29.87,29.73,10,10,10,13,8,,0.00,0,,102
2012-10-19,84,68,52,47,41,32,61,40,15,29.98,29.89,29.81,10,10,10,14,9,22,0.00,0,,162
2012-10-20,91,76,62,55,45,39,58,36,21,29.81,29.74,29.67,10,10,10,18,12,23,0.00,0,,220
2012-10-21,90,76,61,62,50,42,65,44,19,29.82,29.75,29.70,10,10,10,16,7,,0.00,0,,164
2012-10-22,84,72,60,63,54,50,75,55,31,29.95,29.83,29.73,10,10,10,16,9,,0.00,0,Thunderstorm,267
2012-10-23,90,75,60,63,54,36,87,58,15,29.87,29.81,29.75,10,10,9,17,9,25,0.00,0,,162
2012-10-24,93,78,64,63,58,47,87,59,20,29.82,29.73,29.63,10,10,10,23,14,31,0.00,0,,165
2012-10-25,79,66,53,62,46,34,90,51,20,30.02,29.84,29.68,10,10,10,17,12,23,0.00,0,,54
2012-10-26,54,48,41,36,31,23,73,51,32,30.36,30.22,30.04,10,10,10,14,10,18,0.00,7,,23
2012-10-27,55,48,41,23,18,12,45,31,19,30.27,30.19,30.05,10,10,10,12,8,,0.00,6,,102
2012-10-28,70,52,36,33,26,18,59,35,23,30.19,30.11,30.03,10,10,10,15,8,16,0.00,0,,136
2012-10-29,78,60,44,38,34,32,63,41,24,30.12,30.04,29.97,10,10,10,18,11,24,0.00,0,,144
2012-10-30,81,67,53,35,29,23,48,29,12,30.00,29.94,29.88,10,10,10,13,10,16,0.00,0,,212
2012-10-31,81,64,46,47,35,28,56,38,18,30.05,29.97,29.92,10,10,10,12,7,,0.00,0,,159